| time (UTC) | temp F | wind direction | speed MPH | gust MPH | rain 1hr in | rain 24hr in | rain mn in | humidity % | barometer mb |
| 20260504034530 | 47 | 192 | 0.0 | 0.0 | 0.00 | 0.00 | 0.00 | 2 | |
| 20260504034030 | 47 | 192 | 0.0 | 0.0 | 0.00 | 0.00 | 0.00 | 2 | |
| 20260504033530 | 47 | 192 | 0.0 | 0.0 | 0.00 | 0.00 | 0.00 | 2 | |
| 20260504033030 | 47 | 192 | 0.0 | 0.0 | 0.00 | 0.00 | 0.00 | 2 | |
| 20260504032530 | 47 | 192 | 0.0 | 0.0 | 0.00 | 0.00 | 0.00 | 2 | |
| 20260504032031 | 47 | 192 | 0.0 | 0.0 | 0.00 | 0.00 | 0.00 | 2 | |
| 20260504031530 | 47 | 192 | 0.0 | 0.0 | 0.00 | 0.00 | 0.00 | 2 | |
| 20260504031030 | 48 | 192 | 0.0 | 0.0 | 0.00 | 0.00 | 0.00 | 2 | |
| 20260504030530 | 48 | 192 | 0.0 | 0.0 | 0.00 | 0.00 | 0.00 | 2 | |
| 20260504030030 | 48 | 192 | 0.0 | 0.0 | 0.00 | 0.00 | 0.00 | 2 | |
| 20260504025530 | 48 | 192 | 0.0 | 0.0 | 0.00 | 0.00 | 0.00 | 2 | |
| 20260504025030 | 48 | 192 | 0.0 | 0.0 | 0.00 | 0.00 | 0.00 | 2 | |
| 20260504024530 | 48 | 192 | 0.0 | 0.0 | 0.00 | 0.00 | 0.00 | 2 | |
| 20260504024030 | 48 | 192 | 0.0 | 0.0 | 0.00 | 0.00 | 0.00 | 2 | |
| 20260504023530 | 48 | 192 | 0.0 | 0.0 | 0.00 | 0.00 | 0.00 | 2 | |
| 20260504023031 | 48 | 192 | 0.0 | 0.0 | 0.00 | 0.00 | 0.00 | 2 | |
| 20260504022530 | 48 | 192 | 0.0 | 0.0 | 0.00 | 0.00 | 0.00 | 2 | |
| 20260504022030 | 48 | 192 | 0.0 | 0.0 | 0.00 | 0.00 | 0.00 | 2 | |
| 20260504021530 | 49 | 192 | 0.0 | 0.0 | 0.00 | 0.00 | 0.00 | 2 | |
| 20260504021030 | 49 | 192 | 0.0 | 0.0 | 0.00 | 0.00 | 0.00 | 2 | |
| 20260504020530 | 49 | 192 | 0.0 | 0.0 | 0.00 | 0.00 | 0.00 | 2 | |
| 20260504020030 | 49 | 192 | 0.0 | 3.0 | 0.00 | 0.00 | 0.00 | 2 | |
| 20260504015530 | 49 | 211 | 2.0 | 3.0 | 0.00 | 0.00 | 0.00 | 2 | |
| 20260504015030 | 49 | 267 | 0.0 | 0.0 | 0.00 | 0.00 | 0.00 | 2 | |
| 20260504014530 | 50 | 267 | 0.0 | 0.0 | 0.00 | 0.00 | 0.00 | 2 | |
| 20260504014030 | 50 | 267 | 0.0 | 0.0 | 0.00 | 0.00 | 0.00 | 2 | |
| 20260504013530 | 51 | 267 | 0.0 | 0.0 | 0.00 | 0.00 | 0.00 | 2 | |
| 20260504013030 | 51 | 267 | 0.0 | 0.0 | 0.00 | 0.00 | 0.00 | 2 | |
| 20260504012530 | 51 | 267 | 0.0 | 0.0 | 0.00 | 0.00 | 0.00 | 2 | |
| 20260504012030 | 51 | 267 | 0.0 | 0.0 | 0.00 | 0.00 | 0.00 | 2 | |
| 20260504011530 | 51 | 267 | 0.0 | 0.0 | 0.00 | 0.00 | 0.00 | 2 | |
| 20260504011030 | 52 | 267 | 0.0 | 0.0 | 0.00 | 0.00 | 0.00 | 2 | |
| 20260504010531 | 52 | 267 | 0.0 | 0.0 | 0.00 | 0.00 | 0.00 | 2 | |
| 20260504010030 | 52 | 267 | 0.0 | 0.0 | 0.00 | 0.00 | 0.00 | 2 | |
| 20260504005530 | 52 | 267 | 0.0 | 0.0 | 0.00 | 0.00 | 0.00 | 2 | |
| 20260504005031 | 52 | 267 | 0.0 | 0.0 | 0.00 | 0.00 | 0.00 | 2 | |
| 20260504004530 | 52 | 267 | 0.0 | 0.0 | 0.00 | 0.00 | 0.00 | 2 | |
| 20260504004030 | 52 | 267 | 0.0 | 0.0 | 0.00 | 0.00 | 0.00 | 2 | |
| 20260504003530 | 53 | 267 | 0.0 | 0.0 | 0.00 | 0.00 | 0.00 | 2 | |
| 20260504003030 | 53 | 267 | 0.0 | 0.0 | 0.00 | 0.00 | 0.00 | 2 | |
| 20260504002530 | 53 | 267 | 0.0 | 0.0 | 0.00 | 0.00 | 0.00 | 2 | |
| 20260504002030 | 53 | 267 | 0.0 | 0.0 | 0.00 | 0.00 | 0.00 | 2 | |
| 20260504001530 | 54 | 267 | 0.0 | 0.0 | 0.00 | 0.00 | 0.00 | 2 | |
| 20260504001030 | 54 | 267 | 0.0 | 5.0 | 0.00 | 0.00 | 0.00 | 2 | |
| 20260504000530 | 54 | 253 | 5.0 | 6.0 | 0.00 | 0.00 | 0.00 | 2 | |
| 20260504000030 | 54 | 250 | 3.0 | 6.0 | 0.00 | 0.00 | 0.00 | 2 | |
| 20260503235530 | 54 | 245 | 3.0 | 6.0 | 0.00 | 0.00 | 0.00 | 2 | |
| 20260503235030 | 54 | 249 | 2.0 | 6.0 | 0.00 | 0.00 | 0.00 | 2 | |
| 20260503234530 | 55 | 261 | 5.0 | 7.0 | 0.00 | 0.00 | 0.00 | 2 | |
| 20260503234030 | 55 | 241 | 5.0 | 7.0 | 0.00 | 0.00 | 0.00 | 2 | |
| 20260503233530 | 55 | 228 | 5.0 | 6.0 | 0.00 | 0.00 | 0.00 | 2 | |
| 20260503233030 | 55 | 231 | 5.0 | 6.0 | 0.00 | 0.00 | 0.00 | 2 | |
| 20260503232529 | 55 | 260 | 4.0 | 6.0 | 0.00 | 0.00 | 0.00 | 2 | |
| 20260503232030 | 55 | 255 | 5.0 | 7.0 | 0.00 | 0.00 | 0.00 | 2 | |
| 20260503231530 | 56 | 276 | 3.0 | 7.0 | 0.00 | 0.00 | 0.00 | 2 | |
| 20260503231030 | 56 | 193 | 0.0 | 9.0 | 0.00 | 0.00 | 0.00 | 2 | |
| 20260503230530 | 56 | 287 | 5.0 | 9.0 | 0.00 | 0.00 | 0.00 | 2 | |
| 20260503230030 | 57 | 271 | 1.0 | 7.0 | 0.00 | 0.00 | 0.00 | 2 | |
| 20260503225530 | 56 | 271 | 0.0 | 6.0 | 0.00 | 0.00 | 0.00 | 2 | |
| 20260503225030 | 56 | 278 | 2.0 | 7.0 | 0.00 | 0.00 | 0.00 | 2 | |
| 20260503224530 | 57 | 272 | 2.0 | 6.0 | 0.00 | 0.00 | 0.00 | 2 | |
| 20260503224030 | 56 | 252 | 4.0 | 6.0 | 0.00 | 0.00 | 0.00 | 2 | |
| 20260503223530 | 56 | 253 | 0.0 | 6.0 | 0.00 | 0.00 | 0.00 | 2 | |
| 20260503223030 | 56 | 258 | 5.0 | 8.0 | 0.00 | 0.00 | 0.00 | 2 | |
| 20260503222530 | 57 | 275 | 2.0 | 9.0 | 0.00 | 0.00 | 0.00 | 2 | |
| 20260503222030 | 57 | 279 | 7.0 | 9.0 | 0.00 | 0.00 | 0.00 | 2 | |
| 20260503221530 | 58 | 260 | 0.0 | 6.0 | 0.00 | 0.00 | 0.00 | 2 | |
| 20260503221030 | 57 | 271 | 6.0 | 8.0 | 0.00 | 0.00 | 0.00 | 2 | |
| 20260503220530 | 58 | 273 | 6.0 | 9.0 | 0.00 | 0.00 | 0.00 | 2 | |
| 20260503220030 | 59 | 306 | 6.0 | 15.0 | 0.00 | 0.00 | 0.00 | 2 | |
| 20260503215530 | 59 | 285 | 3.0 | 8.0 | 0.00 | 0.00 | 0.00 | 2 | |
| 20260503215031 | 58 | 267 | 3.0 | 8.0 | 0.00 | 0.00 | 0.00 | 2 | |
| 20260503214530 | 56 | 292 | 4.0 | 8.0 | 0.00 | 0.00 | 0.00 | 2 | |
| 20260503214030 | 57 | 254 | 2.0 | 12.0 | 0.00 | 0.00 | 0.00 | 2 | |
| 20260503213530 | 58 | 263 | 5.0 | 8.0 | 0.00 | 0.00 | 0.00 | 2 | |
| 20260503213030 | 58 | 303 | 3.0 | 8.0 | 0.00 | 0.00 | 0.00 | 2 | |
| 20260503212530 | 58 | 261 | 5.0 | 9.0 | 0.00 | 0.00 | 0.00 | 2 | |
| 20260503212030 | 57 | 288 | 6.0 | 8.0 | 0.00 | 0.00 | 0.00 | 2 | |
| 20260503211530 | 57 | 271 | 5.0 | 6.0 | 0.00 | 0.00 | 0.00 | 2 | |
| 20260503211030 | 57 | 255 | 3.0 | 6.0 | 0.00 | 0.00 | 0.00 | 2 | |
| 20260503210530 | 56 | 238 | 3.0 | 6.0 | 0.00 | 0.00 | 0.00 | 2 | |
| 20260503210030 | 57 | 248 | 6.0 | 9.0 | 0.00 | 0.00 | 0.00 | 2 | |
| 20260503205530 | 57 | 268 | 7.0 | 10.0 | 0.00 | 0.00 | 0.00 | 2 | |
| 20260503205030 | 57 | 300 | 5.0 | 9.0 | 0.00 | 0.00 | 0.00 | 2 | |
| 20260503204530 | 58 | 283 | 2.0 | 7.0 | 0.00 | 0.00 | 0.00 | 2 | |
| 20260503204030 | 56 | 279 | 3.0 | 9.0 | 0.00 | 0.00 | 0.00 | 2 | |
| 20260503203530 | 58 | 258 | 6.0 | 10.0 | 0.00 | 0.00 | 0.00 | 2 | |
| 20260503203030 | 57 | 264 | 7.0 | 12.0 | 0.00 | 0.00 | 0.00 | 2 | |
| 20260503202530 | 57 | 265 | 2.0 | 7.0 | 0.00 | 0.00 | 0.00 | 2 | |
| 20260503202030 | 58 | 284 | 2.0 | 7.0 | 0.00 | 0.00 | 0.00 | 2 | |
| 20260503201530 | 56 | 250 | 6.0 | 8.0 | 0.00 | 0.00 | 0.00 | 2 | |
| 20260503201030 | 56 | 263 | 0.0 | 8.0 | 0.00 | 0.00 | 0.00 | 2 | |
| 20260503200530 | 56 | 281 | 8.0 | 10.0 | 0.00 | 0.00 | 0.00 | 2 | |
| 20260503200029 | 57 | 273 | 7.0 | 9.0 | 0.00 | 0.00 | 0.00 | 2 | |
| 20260503195530 | 57 | 244 | 5.0 | 9.0 | 0.00 | 0.00 | 0.00 | 2 | |
| 20260503195030 | 57 | 265 | 6.0 | 12.0 | 0.00 | 0.00 | 0.00 | 2 | |
| 20260503194530 | 57 | 267 | 7.0 | 12.0 | 0.00 | 0.00 | 0.00 | 2 | |
| 20260503194030 | 59 | 290 | 7.0 | 14.0 | 0.00 | 0.00 | 0.00 | 2 | |
| 20260503193530 | 57 | 284 | 3.0 | 6.0 | 0.00 | 0.00 | 0.00 | 2 | |
| 20260503193030 | 56 | 330 | 5.0 | 12.0 | 0.00 | 0.00 | 0.00 | 2 | |
| 20260503192530 | 57 | 284 | 5.0 | 8.0 | 0.00 | 0.00 | 0.00 | 2 | |
| 20260503192030 | 55 | 282 | 5.0 | 7.0 | 0.00 | 0.00 | 0.00 | 2 | |
| 20260503191530 | 56 | 277 | 6.0 | 9.0 | 0.00 | 0.00 | 0.00 | 2 | |
| 20260503191030 | 57 | 314 | 7.0 | 10.0 | 0.00 | 0.00 | 0.00 | 2 | |
| 20260503190530 | 56 | 290 | 5.0 | 7.0 | 0.00 | 0.00 | 0.00 | 2 | |
| 20260503190030 | 56 | 299 | 5.0 | 8.0 | 0.00 | 0.00 | 0.00 | 2 | |
| 20260503185530 | 57 | 278 | 5.0 | 8.0 | 0.00 | 0.00 | 0.00 | 2 | |
| 20260503185030 | 56 | 296 | 7.0 | 10.0 | 0.00 | 0.00 | 0.00 | 2 | |
| 20260503184530 | 57 | 258 | 6.0 | 8.0 | 0.00 | 0.00 | 0.00 | 2 | |
| 20260503184030 | 56 | 290 | 6.0 | 8.0 | 0.00 | 0.00 | 0.00 | 2 | |
| 20260503183530 | 56 | 269 | 7.0 | 12.0 | 0.00 | 0.00 | 0.00 | 2 | |
| 20260503183030 | 58 | 320 | 5.0 | 8.0 | 0.00 | 0.00 | 0.00 | 2 | |
| 20260503182529 | 56 | 266 | 5.0 | 7.0 | 0.00 | 0.00 | 0.00 | 2 | |
| 20260503182030 | 54 | 296 | 5.0 | 8.0 | 0.00 | 0.00 | 0.00 | 2 | |
| 20260503181530 | 55 | 268 | 6.0 | 10.0 | 0.00 | 0.00 | 0.00 | 2 | |
| 20260503181031 | 53 | 232 | 4.0 | 9.0 | 0.00 | 0.00 | 0.00 | 2 | |
| 20260503180530 | 54 | 285 | 6.0 | 8.0 | 0.00 | 0.00 | 0.00 | 2 | |
| 20260503180030 | 54 | 271 | 3.0 | 9.0 | 0.00 | 0.00 | 0.00 | 2 | |
| 20260503175529 | 54 | 297 | 7.0 | 10.0 | 0.00 | 0.00 | 0.00 | 2 | |
| 20260503175030 | 54 | 278 | 5.0 | 7.0 | 0.00 | 0.00 | 0.00 | 2 | |
| 20260503174529 | 55 | 264 | 6.0 | 13.0 | 0.00 | 0.00 | 0.00 | 2 | |
| 20260503174029 | 55 | 267 | 5.0 | 7.0 | 0.00 | 0.00 | 0.00 | 2 | |
| 20260503173530 | 54 | 328 | 5.0 | 7.0 | 0.00 | 0.00 | 0.00 | 2 | |
| 20260503173029 | 53 | 291 | 1.0 | 7.0 | 0.00 | 0.00 | 0.00 | 2 | |
| 20260503172530 | 52 | 294 | 6.0 | 9.0 | 0.00 | 0.00 | 0.00 | 2 | |
| 20260503172030 | 54 | 247 | 6.0 | 14.0 | 0.00 | 0.00 | 0.00 | 2 | |
| 20260503171530 | 54 | 245 | 7.0 | 10.0 | 0.00 | 0.00 | 0.00 | 2 | |
| 20260503171029 | 55 | 211 | 2.0 | 8.0 | 0.00 | 0.00 | 0.00 | 2 | |
| 20260503170530 | 54 | 295 | 2.0 | 7.0 | 0.00 | 0.00 | 0.00 | 2 | |
| 20260503150529 | 49 | 236 | 2.0 | 7.0 | 0.00 | 0.00 | 0.00 | 2 | |
| 20260503131030 | 42 | 268 | 6.0 | 7.0 | 0.00 | 0.00 | 0.00 | 2 | |
| 20260503130530 | 42 | 265 | 4.0 | 7.0 | 0.00 | 0.00 | 0.00 | 2 | |
| 20260503110530 | 33 | 267 | 0.0 | 0.0 | 0.00 | 0.00 | 0.00 | 2 | |
| 20260503081529 | 33 | 267 | 0.0 | 0.0 | 0.00 | 0.00 | 0.00 | 2 | |
| 20260503081030 | 33 | 267 | 0.0 | 0.0 | 0.00 | 0.00 | 0.00 | 2 | |
| 20260503080530 | 33 | 267 | 0.0 | 0.0 | 0.00 | 0.00 | 0.00 | 2 | |
| 20260503072530 | 34 | 267 | 0.0 | 0.0 | 0.00 | 0.00 | 0.00 | 2 | |
| 20260503072029 | 34 | 267 | 0.0 | 0.0 | 0.00 | 0.00 | 0.00 | 2 | |
| 20260503071530 | 34 | 267 | 0.0 | 0.0 | 0.00 | 0.00 | 0.00 | 2 | |
| 20260503071030 | 34 | 267 | 0.0 | 0.0 | 0.00 | 0.00 | 0.00 | 2 | |
| 20260503070530 | 34 | 267 | 0.0 | 0.0 | 0.00 | 0.00 | 0.00 | 2 | |
| 20260503055030 | 33 | 267 | 0.0 | 0.0 | 0.00 | 0.00 | 0.00 | 2 | |
| 20260503054529 | 33 | 267 | 0.0 | 0.0 | 0.00 | 0.00 | 0.00 | 2 | |
| 20260503054030 | 33 | 267 | 0.0 | 0.0 | 0.00 | 0.00 | 0.00 | 2 | |
| 20260503053530 | 33 | 267 | 0.0 | 0.0 | 0.00 | 0.00 | 0.00 | 2 | |
| 20260503053029 | 33 | 267 | 0.0 | 0.0 | 0.00 | 0.00 | 0.00 | 2 | |
| 20260503052530 | 33 | 267 | 0.0 | 0.0 | 0.00 | 0.00 | 0.00 | 2 | |
| 20260503052029 | 32 | 267 | 0.0 | 0.0 | 0.00 | 0.00 | 0.00 | 2 | |
| 20260503051530 | 32 | 267 | 0.0 | 0.0 | 0.00 | 0.00 | 0.00 | 2 | |
| 20260503051029 | 33 | 267 | 0.0 | 0.0 | 0.00 | 0.00 | 0.00 | 2 | |
| 20260503050530 | 33 | 267 | 0.0 | 0.0 | 0.00 | 0.00 | 0.00 | 2 | |
| 20260503050030 | 33 | 267 | 0.0 | 0.0 | 0.00 | 0.00 | 0.00 | 2 | |
| 20260503045530 | 33 | 267 | 0.0 | 0.0 | 0.00 | 0.00 | 0.00 | 2 | |
| 20260503045030 | 33 | 267 | 0.0 | 0.0 | 0.00 | 0.00 | 0.00 | 2 | |
| 20260503044530 | 33 | 267 | 0.0 | 0.0 | 0.00 | 0.00 | 0.00 | 2 | |
| 20260503044030 | 33 | 267 | 0.0 | 0.0 | 0.00 | 0.00 | 0.00 | 2 | |
| 20260503043529 | 34 | 267 | 0.0 | 0.0 | 0.00 | 0.00 | 0.00 | 2 | |
| 20260503043030 | 34 | 267 | 0.0 | 0.0 | 0.00 | 0.00 | 0.00 | 2 | |
| 20260503042529 | 34 | 267 | 0.0 | 0.0 | 0.00 | 0.00 | 0.00 | 2 | |
| 20260503042030 | 34 | 267 | 0.0 | 0.0 | 0.00 | 0.00 | 0.00 | 2 | |
| 20260503041529 | 34 | 267 | 0.0 | 0.0 | 0.00 | 0.00 | 0.00 | 2 | |
| 20260503041030 | 34 | 267 | 0.0 | 0.0 | 0.00 | 0.00 | 0.00 | 2 | |
| 20260503040530 | 34 | 267 | 0.0 | 0.0 | 0.00 | 0.00 | 0.00 | 2 | |
| 20260503040029 | 35 | 267 | 0.0 | 0.0 | 0.00 | 0.00 | 0.00 | 2 | |
| 20260503035530 | 35 | 267 | 0.0 | 0.0 | 0.00 | 0.00 | 0.00 | 2 | |
| 20260503035029 | 35 | 267 | 0.0 | 0.0 | 0.00 | 0.00 | 0.00 | 2 |